,,,PA_Meas_PMT16A,,PR_Meas_QMR101_102,,RH_Meas_QMH101,,SR_Meas_QMS101,,TA_Meas_QMH101,,GenWind,,GenWind,
date,time,status,PA,status,PR,status,RH,status,SR,status,TA,status,DirAvg,status,SpdAvg,
2014-08-03, 00:00:05,VALID,1009.8,VALID,0,VALID,94.3382,VALID,0,VALID,24.8244,VALID,185,VALID,0,
2014-08-03, 00:01:05,VALID,1009.84,VALID,0,VALID,95.1084,VALID,0,VALID,24.8049,VALID,185,VALID,0,
2014-08-03, 00:02:05,VALID,1009.84,VALID,0,VALID,95.8633,VALID,0,VALID,24.8067,VALID,185,VALID,0,
2014-08-03, 00:03:05,VALID,1009.83,VALID,0,VALID,96.1531,VALID,0,VALID,24.7659,VALID,185,VALID,0,
2014-08-03, 00:04:05,VALID,1009.81,VALID,0,VALID,96.4048,VALID,0,VALID,24.7464,VALID,185,VALID,0,
2014-08-03, 00:05:05,VALID,1009.84,VALID,0,VALID,96.8318,VALID,0,VALID,24.7464,VALID,185,VALID,0,
2014-08-03, 00:06:05,VALID,1009.82,VALID,0,VALID,97.2131,VALID,0,VALID,24.7269,VALID,185,VALID,0,
2014-08-03, 00:07:05,VALID,1009.83,VALID,0,VALID,97.3122,VALID,0,VALID,24.7269,VALID,185,VALID,0,
2014-08-03, 00:08:05,VALID,1009.79,VALID,0,VALID,97.541,VALID,0,VALID,24.6666,VALID,185,VALID,0,
2014-08-03, 00:09:05,VALID,1009.82,VALID,0,VALID,97.8384,VALID,0,VALID,24.6684,VALID,185,VALID,0,
2014-08-03, 00:10:05,VALID,1009.83,VALID,0,VALID,98.0214,VALID,0,VALID,24.6489,VALID,185,VALID,0,
2014-08-03, 00:11:05,VALID,1009.83,VALID,0,VALID,98.2273,VALID,0,VALID,24.6099,VALID,185,VALID,0,
2014-08-03, 00:12:05,VALID,1009.84,VALID,0,VALID,98.3646,VALID,0,VALID,24.5905,VALID,185,VALID,0,
2014-08-03, 00:13:05,VALID,1009.85,VALID,0,VALID,98.6315,VALID,0,VALID,24.571,VALID,185,VALID,0,
2014-08-03, 00:14:05,VALID,1009.84,VALID,0,VALID,98.845,VALID,0,VALID,24.532,VALID,185,VALID,0,
2014-08-03, 00:15:05,VALID,1009.83,VALID,0,VALID,99.0738,VALID,0,VALID,24.532,VALID,185,VALID,0,
2014-08-03, 00:16:05,VALID,1009.83,VALID,0,VALID,99.2339,VALID,0,VALID,24.532,VALID,185,VALID,0,
2014-08-03, 00:17:05,VALID,1009.83,VALID,0,VALID,99.478,VALID,0,VALID,24.493,VALID,185,VALID,0,
2014-08-03, 00:18:05,VALID,1009.81,VALID,0,VALID,99.7372,VALID,0,VALID,24.5125,VALID,185,VALID,0,
2014-08-03, 00:19:05,VALID,1009.8,VALID,0,VALID,99.844,VALID,0,VALID,24.493,VALID,185,VALID,0,
2014-08-03, 00:20:05,VALID,1009.81,VALID,0,VALID,100.08,VALID,0,VALID,24.4735,VALID,185,VALID,0,
2014-08-03, 00:21:05,VALID,1009.8,VALID,0,VALID,100.256,VALID,0,VALID,24.4735,VALID,185,VALID,0,
2014-08-03, 00:22:05,VALID,1009.78,VALID,0,VALID,100.393,VALID,0,VALID,24.454,VALID,185,VALID,0,
2014-08-03, 00:23:05,VALID,1009.82,VALID,0,VALID,100.439,VALID,0,VALID,24.454,VALID,185,VALID,0,
2014-08-03, 00:24:05,VALID,1009.82,VALID,0,VALID,100.515,VALID,0,VALID,24.4345,VALID,185,VALID,0,
2014-08-03, 00:25:05,VALID,1009.83,VALID,0,VALID,100.637,VALID,0,VALID,24.4345,VALID,185,VALID,0,
2014-08-03, 00:26:05,VALID,1009.76,VALID,0,VALID,100.736,VALID,0,VALID,24.415,VALID,185,VALID,0,
2014-08-03, 00:27:05,VALID,1009.76,VALID,0,VALID,100.873,VALID,0,VALID,24.415,VALID,185,VALID,0,
2014-08-03, 00:28:05,VALID,1009.7,VALID,0,VALID,100.927,VALID,0,VALID,24.3956,VALID,185,VALID,0,
2014-08-03, 00:29:05,VALID,1009.68,VALID,0,VALID,101.049,VALID,0,VALID,24.3956,VALID,185,VALID,0,
2014-08-03, 00:30:05,VALID,1009.67,VALID,0,VALID,101.117,VALID,0,VALID,24.3779,VALID,185,VALID,0,
2014-08-03, 00:31:05,VALID,1009.67,VALID,0,VALID,101.194,VALID,0,VALID,24.3566,VALID,185,VALID,0,
2014-08-03, 00:32:05,VALID,1009.62,VALID,0,VALID,101.224,VALID,0,VALID,24.3371,VALID,185,VALID,0,
2014-08-03, 00:33:05,VALID,1009.63,VALID,0,VALID,101.331,VALID,0,VALID,24.3176,VALID,185,VALID,0,
2014-08-03, 00:34:05,VALID,1009.6,VALID,0,VALID,101.392,VALID,0,VALID,24.3176,VALID,185,VALID,0,
2014-08-03, 00:35:05,VALID,1009.63,VALID,0,VALID,101.453,VALID,0,VALID,24.2981,VALID,185,VALID,0,
2014-08-03, 00:36:05,VALID,1009.65,VALID,0,VALID,101.567,VALID,0,VALID,24.2981,VALID,185,VALID,0,
2014-08-03, 00:37:05,VALID,1009.63,VALID,0,VALID,101.705,VALID,0,VALID,24.2981,VALID,185,VALID,0,
2014-08-03, 00:38:05,VALID,1009.62,VALID,0,VALID,101.728,VALID,0,VALID,24.2591,VALID,185,VALID,0,
2014-08-03, 00:39:05,VALID,1009.62,VALID,0,VALID,101.773,VALID,0,VALID,24.2378,VALID,185,VALID,0,
2014-08-03, 00:40:05,VALID,1009.61,VALID,0,VALID,101.827,VALID,0,VALID,24.1988,VALID,185,VALID,0,
2014-08-03, 00:41:05,VALID,1009.6,VALID,0,VALID,101.911,VALID,0.112112,VALID,24.2202,VALID,185,VALID,0,
2014-08-03, 00:42:05,VALID,1009.57,VALID,0,VALID,101.979,VALID,0,VALID,24.222,VALID,185,VALID,0,
2014-08-03, 00:43:05,VALID,1009.55,VALID,0,VALID,102.078,VALID,0,VALID,24.2007,VALID,185,VALID,0,
2014-08-03, 00:44:05,VALID,1009.5,VALID,0,VALID,102.177,VALID,0,VALID,24.1812,VALID,185,VALID,0,
2014-08-03, 00:45:05,VALID,1009.5,VALID,0,VALID,102.292,VALID,0,VALID,24.2025,VALID,185,VALID,0,
2014-08-03, 00:46:05,VALID,1009.49,VALID,0,VALID,102.36,VALID,0,VALID,24.1812,VALID,185,VALID,0,
2014-08-03, 00:47:05,VALID,1009.47,VALID,0,VALID,102.437,VALID,0,VALID,24.1617,VALID,185,VALID,0,
2014-08-03, 00:48:05,VALID,1009.48,VALID,0,VALID,102.544,VALID,0,VALID,24.1617,VALID,185,VALID,0,
2014-08-03, 00:49:05,VALID,1009.48,VALID,0,VALID,102.574,VALID,0,VALID,24.1404,VALID,185,VALID,0,
2014-08-03, 00:50:05,VALID,1009.46,VALID,0,VALID,102.704,VALID,0,VALID,24.1812,VALID,185,VALID,0,
2014-08-03, 00:51:05,VALID,1009.45,VALID,0,VALID,102.727,VALID,0,VALID,24.1617,VALID,185,VALID,0,
2014-08-03, 00:52:05,VALID,1009.45,VALID,0,VALID,102.78,VALID,0,VALID,24.1209,VALID,185,VALID,0,
2014-08-03, 00:53:05,VALID,1009.46,VALID,0,VALID,102.78,VALID,0.112112,VALID,24.1227,VALID,185,VALID,0,
2014-08-03, 00:54:05,VALID,1009.44,VALID,0,VALID,102.826,VALID,0,VALID,24.1032,VALID,185,VALID,0,
2014-08-03, 00:55:05,VALID,1009.42,VALID,0,VALID,102.833,VALID,0,VALID,24.0837,VALID,185,VALID,0,
2014-08-03, 00:56:05,VALID,1009.44,VALID,0,VALID,102.887,VALID,0,VALID,24.0643,VALID,185,VALID,0,
2014-08-03, 00:57:05,VALID,1009.43,VALID,0,VALID,102.925,VALID,0,VALID,24.0448,VALID,185,VALID,0,
2014-08-03, 00:58:05,VALID,1009.43,VALID,0,VALID,102.955,VALID,0,VALID,24.0253,VALID,185,VALID,0,
2014-08-03, 00:59:05,VALID,1009.41,VALID,0,VALID,102.993,VALID,0,VALID,23.9845,VALID,185,VALID,0,
2014-08-03, 01:00:05,VALID,1009.37,VALID,0,VALID,103.108,VALID,0,VALID,23.9863,VALID,185,VALID,0,
2014-08-03, 01:01:05,VALID,1009.37,VALID,0,VALID,103.1,VALID,0,VALID,23.9668,VALID,185,VALID,0,
2014-08-03, 01:02:05,VALID,1009.34,VALID,0,VALID,103.184,VALID,0,VALID,23.9455,VALID,185,VALID,0,
2014-08-03, 01:03:05,VALID,1009.33,VALID,0,VALID,103.192,VALID,0,VALID,23.9278,VALID,185,VALID,0,
2014-08-03, 01:04:05,VALID,1009.33,VALID,0,VALID,103.245,VALID,0,VALID,23.8871,VALID,185,VALID,0,
2014-08-03, 01:05:05,VALID,1009.32,VALID,0,VALID,103.306,VALID,0,VALID,23.9084,VALID,185,VALID,0,
2014-08-03, 01:06:05,VALID,1009.34,VALID,0,VALID,103.428,VALID,0,VALID,23.9084,VALID,185,VALID,0,
2014-08-03, 01:07:05,VALID,1009.32,VALID,0,VALID,103.542,VALID,0,VALID,23.9278,VALID,185,VALID,0,
2014-08-03, 01:08:05,VALID,1009.32,VALID,0,VALID,103.68,VALID,0,VALID,23.9065,VALID,185,VALID,0,
2014-08-03, 01:09:05,VALID,1009.32,VALID,0,VALID,103.748,VALID,0.112112,VALID,23.926,VALID,185,VALID,0,
2014-08-03, 01:10:05,VALID,1009.3,VALID,0,VALID,103.779,VALID,0.112112,VALID,23.9278,VALID,185,VALID,0,
2014-08-03, 01:11:05,VALID,1009.29,VALID,0,VALID,103.84,VALID,0,VALID,23.9065,VALID,185,VALID,0,
2014-08-03, 01:12:05,VALID,1009.29,VALID,0,VALID,103.893,VALID,0,VALID,23.8871,VALID,185,VALID,0,
2014-08-03, 01:13:05,VALID,1009.26,VALID,0,VALID,103.87,VALID,0,VALID,23.8676,VALID,185,VALID,0,
2014-08-03, 01:14:05,VALID,1009.24,VALID,0,VALID,103.87,VALID,0,VALID,23.8499,VALID,185,VALID,0,
2014-08-03, 01:15:05,VALID,1009.25,VALID,0,VALID,103.878,VALID,0,VALID,23.8109,VALID,185,VALID,0,
2014-08-03, 01:16:05,VALID,1009.24,VALID,0,VALID,103.901,VALID,0,VALID,23.7914,VALID,185,VALID,0,
2014-08-03, 01:17:05,VALID,1009.24,VALID,0,VALID,103.939,VALID,0,VALID,23.7507,VALID,185,VALID,0,
2014-08-03, 01:18:05,VALID,1009.23,VALID,0,VALID,104,VALID,0,VALID,23.7525,VALID,185,VALID,0,
2014-08-03, 01:19:05,VALID,1009.2,VALID,0,VALID,104,VALID,0,VALID,23.7525,VALID,185,VALID,0,
2014-08-03, 01:20:05,VALID,1009.21,VALID,0,VALID,104,VALID,0,VALID,23.7312,VALID,185,VALID,0,
2014-08-03, 01:21:05,VALID,1009.2,VALID,0,VALID,104,VALID,0,VALID,23.7525,VALID,185,VALID,0,
2014-08-03, 01:22:05,VALID,1009.15,VALID,0,VALID,104,VALID,0,VALID,23.7312,VALID,185,VALID,0,
2014-08-03, 01:23:05,VALID,1009.19,VALID,0,VALID,104,VALID,0,VALID,23.7525,VALID,185,VALID,0,
2014-08-03, 01:24:05,VALID,1009.17,VALID,0,VALID,104,VALID,0,VALID,23.7525,VALID,93,VALID,0,
2014-08-03, 01:25:05,VALID,1009.15,VALID,0,VALID,104,VALID,0,VALID,23.733,VALID,58,VALID,0,
2014-08-03, 01:26:05,VALID,1009.17,VALID,0,VALID,104,VALID,0,VALID,23.7312,VALID,58,VALID,0,
2014-08-03, 01:27:05,VALID,1009.19,VALID,0,VALID,104,VALID,0,VALID,23.7525,VALID,58,VALID,0,
2014-08-03, 01:28:05,VALID,1009.19,VALID,0,VALID,104,VALID,0,VALID,23.7525,VALID,58,VALID,0,
2014-08-03, 01:29:05,VALID,1009.21,VALID,0,VALID,104,VALID,0.112112,VALID,23.733,VALID,58,VALID,0,
2014-08-03, 01:30:05,VALID,1009.21,VALID,0,VALID,104,VALID,0,VALID,23.7117,VALID,58,VALID,0,
2014-08-03, 01:31:05,VALID,1009.22,VALID,0,VALID,104,VALID,0,VALID,23.733,VALID,58,VALID,0,
2014-08-03, 01:32:05,VALID,1009.2,VALID,0,VALID,104,VALID,0,VALID,23.733,VALID,58,VALID,0,
2014-08-03, 01:33:05,VALID,1009.21,VALID,0,VALID,104,VALID,0,VALID,23.7135,VALID,58,VALID,0,
2014-08-03, 01:34:05,VALID,1009.21,VALID,0,VALID,104,VALID,0,VALID,23.694,VALID,58,VALID,0,
2014-08-03, 01:35:05,VALID,1009.15,VALID,0,VALID,104,VALID,0,VALID,23.7135,VALID,58,VALID,0,
2014-08-03, 01:36:05,VALID,1009.12,VALID,0,VALID,104,VALID,0,VALID,23.7135,VALID,58,VALID,0,
2014-08-03, 01:37:05,VALID,1009.07,VALID,0,VALID,104,VALID,0,VALID,23.7135,VALID,58,VALID,0,
2014-08-03, 01:38:05,VALID,1009.05,VALID,0,VALID,104,VALID,0,VALID,23.694,VALID,58,VALID,0,
2014-08-03, 01:39:05,VALID,1009.05,VALID,0,VALID,104,VALID,0,VALID,23.694,VALID,58,VALID,0,
2014-08-03, 01:40:05,VALID,1009.03,VALID,0,VALID,104,VALID,0,VALID,23.694,VALID,58,VALID,0,
2014-08-03, 01:41:05,VALID,1009.02,VALID,0,VALID,104,VALID,0,VALID,23.7135,VALID,58,VALID,0,
2014-08-03, 01:42:05,VALID,1009.02,VALID,0,VALID,104,VALID,0,VALID,23.694,VALID,58,VALID,0,
2014-08-03, 01:43:05,VALID,1009,VALID,0,VALID,104,VALID,0,VALID,23.694,VALID,58,VALID,0,
2014-08-03, 01:44:05,VALID,1008.98,VALID,0,VALID,104,VALID,0,VALID,23.694,VALID,58,VALID,0,
2014-08-03, 01:45:05,VALID,1008.99,VALID,0,VALID,104,VALID,0,VALID,23.694,VALID,58,VALID,0,
2014-08-03, 01:46:05,VALID,1008.97,VALID,0,VALID,104,VALID,0,VALID,23.694,VALID,58,VALID,0,
2014-08-03, 01:47:05,VALID,1008.93,VALID,0,VALID,104,VALID,0,VALID,23.6922,VALID,58,VALID,0,
2014-08-03, 01:48:05,VALID,1008.93,VALID,0,VALID,104,VALID,0.112112,VALID,23.6727,VALID,58,VALID,0,
2014-08-03, 01:49:05,VALID,1008.91,VALID,0,VALID,104,VALID,0,VALID,23.6727,VALID,58,VALID,0,
2014-08-03, 01:50:05,VALID,1008.88,VALID,0,VALID,104,VALID,0,VALID,23.6727,VALID,58,VALID,0,
2014-08-03, 01:51:05,VALID,1008.88,VALID,0,VALID,104,VALID,0,VALID,23.7135,VALID,58,VALID,0,
2014-08-03, 01:52:05,VALID,1008.83,VALID,0,VALID,104,VALID,0,VALID,23.694,VALID,58,VALID,0,
2014-08-03, 01:53:05,VALID,1008.83,VALID,0,VALID,104,VALID,0,VALID,23.6532,VALID,58,VALID,0,
2014-08-03, 01:54:05,VALID,1008.81,VALID,0,VALID,104,VALID,0.112112,VALID,23.655,VALID,58,VALID,0,
2014-08-03, 01:55:05,VALID,1008.8,VALID,0,VALID,104,VALID,0,VALID,23.655,VALID,58,VALID,0,
2014-08-03, 01:56:05,VALID,1008.8,VALID,0,VALID,104,VALID,0.112112,VALID,23.6338,VALID,58,VALID,0,
2014-08-03, 01:57:05,VALID,1008.76,VALID,0,VALID,104,VALID,0,VALID,23.6143,VALID,58,VALID,0,
2014-08-03, 01:58:05,VALID,1008.76,VALID,0,VALID,104,VALID,0,VALID,23.6356,VALID,58,VALID,0,
2014-08-03, 01:59:05,VALID,1008.76,VALID,0,VALID,104,VALID,0,VALID,23.6143,VALID,58,VALID,0,
2014-08-03, 02:00:05,VALID,1008.73,VALID,0,VALID,104,VALID,0.112112,VALID,23.6161,VALID,58,VALID,0,
2014-08-03, 02:01:04,VALID,1008.73,VALID,0,VALID,104,VALID,0.112112,VALID,23.5966,VALID,58,VALID,0,
2014-08-03, 02:02:04,VALID,1008.74,VALID,0,VALID,104,VALID,0,VALID,23.5576,VALID,58,VALID,0,
2014-08-03, 02:03:04,VALID,1008.71,VALID,0,VALID,104,VALID,0,VALID,23.5381,VALID,58,VALID,0,
2014-08-03, 02:04:04,VALID,1008.68,VALID,0,VALID,104,VALID,0,VALID,23.5186,VALID,58,VALID,0,
2014-08-03, 02:05:04,VALID,1008.64,VALID,0,VALID,104,VALID,0.112112,VALID,23.4779,VALID,58,VALID,0,
2014-08-03, 02:06:04,VALID,1008.66,VALID,0,VALID,104,VALID,0.112112,VALID,23.4992,VALID,58,VALID,0,
2014-08-03, 02:07:04,VALID,1008.64,VALID,0,VALID,104,VALID,0,VALID,23.5186,VALID,58,VALID,0,
2014-08-03, 02:08:04,VALID,1008.59,VALID,0,VALID,104,VALID,0,VALID,23.5186,VALID,58,VALID,0,
2014-08-03, 02:09:04,VALID,1008.62,VALID,0,VALID,104,VALID,0,VALID,23.4974,VALID,58,VALID,0,
2014-08-03, 02:10:04,VALID,1008.6,VALID,0,VALID,104,VALID,0,VALID,23.5186,VALID,58,VALID,0,
2014-08-03, 02:11:04,VALID,1008.62,VALID,0,VALID,104,VALID,0,VALID,23.5381,VALID,58,VALID,0,
2014-08-03, 02:12:04,VALID,1008.62,VALID,0,VALID,104,VALID,0,VALID,23.5381,VALID,58,VALID,0,
2014-08-03, 02:13:04,VALID,1008.64,VALID,0,VALID,104,VALID,0,VALID,23.5363,VALID,58,VALID,0,
2014-08-03, 02:14:04,VALID,1008.64,VALID,0,VALID,104,VALID,0.112112,VALID,23.5381,VALID,58,VALID,0,
2014-08-03, 02:15:04,VALID,1008.65,VALID,0,VALID,104,VALID,0,VALID,23.5576,VALID,58,VALID,0,
2014-08-03, 02:16:04,VALID,1008.64,VALID,0,VALID,104,VALID,0,VALID,23.5576,VALID,58,VALID,0,
2014-08-03, 02:17:04,VALID,1008.63,VALID,0,VALID,104,VALID,0,VALID,23.5186,VALID,58,VALID,0,
2014-08-03, 02:18:04,VALID,1008.63,VALID,0,VALID,104,VALID,0,VALID,23.5186,VALID,58,VALID,0,
2014-08-03, 02:19:04,VALID,1008.65,VALID,0,VALID,104,VALID,0,VALID,23.5381,VALID,58,VALID,0,
2014-08-03, 02:20:04,VALID,1008.67,VALID,0,VALID,104,VALID,0,VALID,23.5169,VALID,58,VALID,0,
2014-08-03, 02:21:04,VALID,1008.67,VALID,0,VALID,104,VALID,0,VALID,23.5381,VALID,58,VALID,0,
2014-08-03, 02:22:04,VALID,1008.65,VALID,0,VALID,104,VALID,0,VALID,23.5381,VALID,58,VALID,0,
2014-08-03, 02:23:04,VALID,1008.67,VALID,0,VALID,104,VALID,0,VALID,23.5381,VALID,58,VALID,0,
2014-08-03, 02:24:04,VALID,1008.66,VALID,0,VALID,104,VALID,0,VALID,23.5381,VALID,58,VALID,0,
2014-08-03, 02:25:04,VALID,1008.68,VALID,0,VALID,104,VALID,0,VALID,23.5169,VALID,58,VALID,0,
2014-08-03, 02:26:04,VALID,1008.69,VALID,0,VALID,104,VALID,0,VALID,23.5381,VALID,58,VALID,0,
2014-08-03, 02:27:04,VALID,1008.66,VALID,0,VALID,104,VALID,0,VALID,23.5363,VALID,58,VALID,0,
2014-08-03, 02:28:04,VALID,1008.63,VALID,0,VALID,104,VALID,0,VALID,23.5576,VALID,58,VALID,0,
2014-08-03, 02:29:04,VALID,1008.63,VALID,0,VALID,104,VALID,0,VALID,23.5576,VALID,58,VALID,0,
2014-08-03, 02:30:04,VALID,1008.6,VALID,0,VALID,104,VALID,0,VALID,23.5576,VALID,58,VALID,0,
2014-08-03, 02:31:04,VALID,1008.59,VALID,0,VALID,104,VALID,0,VALID,23.5558,VALID,58,VALID,0,
2014-08-03, 02:32:04,VALID,1008.52,VALID,0,VALID,104,VALID,0.112112,VALID,23.5771,VALID,58,VALID,0,
2014-08-03, 02:33:04,VALID,1008.51,VALID,0,VALID,104,VALID,0,VALID,23.5576,VALID,58,VALID,0,
2014-08-03, 02:34:04,VALID,1008.54,VALID,0,VALID,104,VALID,0,VALID,23.5381,VALID,58,VALID,0,
2014-08-03, 02:35:04,VALID,1008.54,VALID,0,VALID,104,VALID,0,VALID,23.5381,VALID,58,VALID,0,
2014-08-03, 02:36:04,VALID,1008.58,VALID,0,VALID,104,VALID,0,VALID,23.5186,VALID,58,VALID,0,
2014-08-03, 02:37:04,VALID,1008.58,VALID,0,VALID,104,VALID,0.112112,VALID,23.4974,VALID,58,VALID,0,
2014-08-03, 02:38:04,VALID,1008.6,VALID,0,VALID,104,VALID,0,VALID,23.4974,VALID,58,VALID,0,
2014-08-03, 02:39:04,VALID,1008.6,VALID,0,VALID,104,VALID,0.112112,VALID,23.4779,VALID,58,VALID,0,
2014-08-03, 02:40:04,VALID,1008.55,VALID,0,VALID,104,VALID,0.112112,VALID,23.4992,VALID,58,VALID,0,
2014-08-03, 02:41:04,VALID,1008.55,VALID,0,VALID,104,VALID,0.112112,VALID,23.4584,VALID,58,VALID,0,
2014-08-03, 02:42:04,VALID,1008.52,VALID,0,VALID,104,VALID,0,VALID,23.4602,VALID,58,VALID,0,
2014-08-03, 02:43:04,VALID,1008.53,VALID,0,VALID,104,VALID,0.112112,VALID,23.4389,VALID,58,VALID,0,
2014-08-03, 02:44:04,VALID,1008.47,VALID,0,VALID,104,VALID,0.112112,VALID,23.4602,VALID,58,VALID,0,
2014-08-03, 02:45:04,VALID,1008.49,VALID,0,VALID,104,VALID,0.112112,VALID,23.4389,VALID,58,VALID,0,
2014-08-03, 02:46:04,VALID,1008.51,VALID,0,VALID,104,VALID,0.112112,VALID,23.4194,VALID,58,VALID,0,
2014-08-03, 02:47:04,VALID,1008.53,VALID,0,VALID,104,VALID,0,VALID,23.4407,VALID,58,VALID,0,
2014-08-03, 02:48:04,VALID,1008.56,VALID,0,VALID,104,VALID,0,VALID,23.4407,VALID,58,VALID,0,
2014-08-03, 02:49:04,VALID,1008.57,VALID,0,VALID,104,VALID,0,VALID,23.4407,VALID,58,VALID,0,
2014-08-03, 02:50:04,VALID,1008.58,VALID,0,VALID,104,VALID,0,VALID,23.4407,VALID,58,VALID,0,
2014-08-03, 02:51:04,VALID,1008.56,VALID,0,VALID,104,VALID,0.112112,VALID,23.4407,VALID,58,VALID,0,
2014-08-03, 02:52:04,VALID,1008.59,VALID,0,VALID,104,VALID,0,VALID,23.4212,VALID,58,VALID,0,
2014-08-03, 02:53:04,VALID,1008.54,VALID,0,VALID,104,VALID,0,VALID,23.4212,VALID,58,VALID,0,
2014-08-03, 02:54:04,VALID,1008.52,VALID,0,VALID,104,VALID,0,VALID,23.4017,VALID,58,VALID,0,
2014-08-03, 02:55:04,VALID,1008.5,VALID,0,VALID,104,VALID,0,VALID,23.3805,VALID,58,VALID,0,
2014-08-03, 02:56:04,VALID,1008.51,VALID,0,VALID,104,VALID,0.112112,VALID,23.3628,VALID,58,VALID,0,
2014-08-03, 02:57:04,VALID,1008.48,VALID,0,VALID,104,VALID,0,VALID,23.3415,VALID,58,VALID,0,
2014-08-03, 02:58:04,VALID,1008.51,VALID,0,VALID,104,VALID,0,VALID,23.3823,VALID,58,VALID,0,
2014-08-03, 02:59:04,VALID,1008.48,VALID,0,VALID,104,VALID,0,VALID,23.361,VALID,58,VALID,0,
2014-08-03, 03:00:04,VALID,1008.49,VALID,0,VALID,104,VALID,0,VALID,23.3628,VALID,58,VALID,0,
2014-08-03, 03:01:04,VALID,1008.49,VALID,0,VALID,104,VALID,0,VALID,23.3628,VALID,58,VALID,0,
2014-08-03, 03:02:04,VALID,1008.46,VALID,0,VALID,104,VALID,0.112112,VALID,23.3823,VALID,58,VALID,0,
2014-08-03, 03:03:04,VALID,1008.47,VALID,0,VALID,104,VALID,0.112112,VALID,23.361,VALID,58,VALID,0,
2014-08-03, 03:04:04,VALID,1008.48,VALID,0,VALID,104,VALID,0.112112,VALID,23.3823,VALID,58,VALID,0,
2014-08-03, 03:05:04,VALID,1008.46,VALID,0,VALID,104,VALID,0,VALID,23.3805,VALID,58,VALID,0,
2014-08-03, 03:06:04,VALID,1008.48,VALID,0,VALID,104,VALID,0,VALID,23.3628,VALID,58,VALID,0,
2014-08-03, 03:07:04,VALID,1008.47,VALID,0,VALID,104,VALID,0.112112,VALID,23.3433,VALID,58,VALID,0,
2014-08-03, 03:08:04,VALID,1008.5,VALID,0,VALID,104,VALID,0,VALID,23.3026,VALID,58,VALID,0,
2014-08-03, 03:09:04,VALID,1008.45,VALID,0,VALID,104,VALID,0.112112,VALID,23.3433,VALID,58,VALID,0,
2014-08-03, 03:10:04,VALID,1008.43,VALID,0,VALID,104,VALID,0.112112,VALID,23.3433,VALID,58,VALID,0,
2014-08-03, 03:11:04,VALID,1008.43,VALID,0,VALID,104,VALID,0.112112,VALID,23.3433,VALID,58,VALID,0,
2014-08-03, 03:12:04,VALID,1008.4,VALID,0,VALID,104,VALID,0.112112,VALID,23.3433,VALID,58,VALID,0,
2014-08-03, 03:13:04,VALID,1008.41,VALID,0,VALID,104,VALID,0,VALID,23.3433,VALID,58,VALID,0,
2014-08-03, 03:14:04,VALID,1008.44,VALID,0,VALID,104,VALID,0.112112,VALID,23.322,VALID,58,VALID,0,
2014-08-03, 03:15:04,VALID,1008.41,VALID,0,VALID,104,VALID,0.112112,VALID,23.3415,VALID,58,VALID,0,
2014-08-03, 03:16:04,VALID,1008.43,VALID,0,VALID,104,VALID,0,VALID,23.3628,VALID,58,VALID,0,
2014-08-03, 03:17:04,VALID,1008.46,VALID,0,VALID,104,VALID,0,VALID,23.3415,VALID,58,VALID,0,
2014-08-03, 03:18:04,VALID,1008.43,VALID,0,VALID,104,VALID,0,VALID,23.3628,VALID,58,VALID,0,
2014-08-03, 03:19:04,VALID,1008.44,VALID,0,VALID,104,VALID,0,VALID,23.3628,VALID,58,VALID,0,
2014-08-03, 03:20:04,VALID,1008.42,VALID,0,VALID,104,VALID,0,VALID,23.3628,VALID,58,VALID,0,
2014-08-03, 03:21:04,VALID,1008.4,VALID,0,VALID,104,VALID,0.112112,VALID,23.3238,VALID,58,VALID,0,
2014-08-03, 03:22:04,VALID,1008.4,VALID,0,VALID,104,VALID,0,VALID,23.3043,VALID,58,VALID,0,
2014-08-03, 03:23:04,VALID,1008.4,VALID,0,VALID,104,VALID,0,VALID,23.2848,VALID,58,VALID,0,
2014-08-03, 03:24:04,VALID,1008.38,VALID,0,VALID,104,VALID,0.112112,VALID,23.3238,VALID,58,VALID,0,
2014-08-03, 03:25:04,VALID,1008.41,VALID,0,VALID,104,VALID,0,VALID,23.3433,VALID,58,VALID,0,
2014-08-03, 03:26:04,VALID,1008.44,VALID,0,VALID,104,VALID,0.112112,VALID,23.3238,VALID,58,VALID,0,
2014-08-03, 03:27:04,VALID,1008.41,VALID,0,VALID,104,VALID,0,VALID,23.3043,VALID,58,VALID,0,
2014-08-03, 03:28:04,VALID,1008.45,VALID,0,VALID,104,VALID,0.112112,VALID,23.3238,VALID,58,VALID,0,
2014-08-03, 03:29:04,VALID,1008.47,VALID,0,VALID,104,VALID,0,VALID,23.3043,VALID,58,VALID,0,
2014-08-03, 03:30:04,VALID,1008.48,VALID,0,VALID,104,VALID,0,VALID,23.3043,VALID,58,VALID,0,
2014-08-03, 03:31:04,VALID,1008.49,VALID,0,VALID,104,VALID,0,VALID,23.3043,VALID,58,VALID,0,
2014-08-03, 03:32:04,VALID,1008.51,VALID,0,VALID,104,VALID,0,VALID,23.2848,VALID,58,VALID,0,
2014-08-03, 03:33:04,VALID,1008.52,VALID,0,VALID,104,VALID,0,VALID,23.2848,VALID,58,VALID,0,
2014-08-03, 03:34:04,VALID,1008.52,VALID,0,VALID,104,VALID,0.112112,VALID,23.2654,VALID,58,VALID,0,
2014-08-03, 03:35:04,VALID,1008.53,VALID,0,VALID,104,VALID,0.112112,VALID,23.2654,VALID,58,VALID,0,
2014-08-03, 03:36:04,VALID,1008.54,VALID,0,VALID,104,VALID,0,VALID,23.2459,VALID,58,VALID,0,
2014-08-03, 03:37:04,VALID,1008.55,VALID,0,VALID,104,VALID,0.112112,VALID,23.2459,VALID,58,VALID,0,
2014-08-03, 03:38:04,VALID,1008.53,VALID,0,VALID,104,VALID,0.112112,VALID,23.2264,VALID,58,VALID,0,
2014-08-03, 03:39:04,VALID,1008.53,VALID,0,VALID,104,VALID,0,VALID,23.1857,VALID,58,VALID,0,
2014-08-03, 03:40:04,VALID,1008.51,VALID,0,VALID,104,VALID,0,VALID,23.1874,VALID,58,VALID,0,
2014-08-03, 03:41:04,VALID,1008.53,VALID,0,VALID,104,VALID,0,VALID,23.1874,VALID,58,VALID,0,
2014-08-03, 03:42:04,VALID,1008.52,VALID,0,VALID,104,VALID,0.112112,VALID,23.1874,VALID,58,VALID,0,
2014-08-03, 03:43:04,VALID,1008.52,VALID,0,VALID,104,VALID,0,VALID,23.1874,VALID,58,VALID,0,
2014-08-03, 03:44:04,VALID,1008.51,VALID,0,VALID,104,VALID,0,VALID,23.1874,VALID,58,VALID,0,
2014-08-03, 03:45:04,VALID,1008.55,VALID,0,VALID,104,VALID,0.112112,VALID,23.1857,VALID,58,VALID,0,
2014-08-03, 03:46:04,VALID,1008.51,VALID,0,VALID,104,VALID,0,VALID,23.1857,VALID,58,VALID,0,
2014-08-03, 03:47:04,VALID,1008.53,VALID,0,VALID,104,VALID,0,VALID,23.1874,VALID,58,VALID,0,
2014-08-03, 03:48:04,VALID,1008.53,VALID,0,VALID,104,VALID,0,VALID,23.2069,VALID,58,VALID,0,
2014-08-03, 03:49:04,VALID,1008.54,VALID,0,VALID,104,VALID,0,VALID,23.2069,VALID,58,VALID,0,
2014-08-03, 03:50:04,VALID,1008.54,VALID,0,VALID,104,VALID,0,VALID,23.2459,VALID,58,VALID,0,
2014-08-03, 03:51:04,VALID,1008.56,VALID,0,VALID,104,VALID,0,VALID,23.2866,VALID,58,VALID,0,
2014-08-03, 03:52:04,VALID,1008.56,VALID,0,VALID,104,VALID,0,VALID,23.2654,VALID,58,VALID,0,
2014-08-03, 03:53:04,VALID,1008.56,VALID,0,VALID,104,VALID,0,VALID,23.2654,VALID,58,VALID,0,
2014-08-03, 03:54:04,VALID,1008.58,VALID,0,VALID,104,VALID,0,VALID,23.2264,VALID,58,VALID,0,
2014-08-03, 03:55:04,VALID,1008.6,VALID,0,VALID,104,VALID,0,VALID,23.2069,VALID,58,VALID,0,
2014-08-03, 03:56:04,VALID,1008.62,VALID,0,VALID,104,VALID,0,VALID,23.1662,VALID,58,VALID,0,
2014-08-03, 03:57:04,VALID,1008.64,VALID,0,VALID,104,VALID,0,VALID,23.1874,VALID,58,VALID,0,
2014-08-03, 03:58:04,VALID,1008.62,VALID,0,VALID,104,VALID,0.112112,VALID,23.1662,VALID,58,VALID,0,
2014-08-03, 03:59:04,VALID,1008.67,VALID,0,VALID,104,VALID,0,VALID,23.1485,VALID,58,VALID,0,
2014-08-03, 04:00:04,VALID,1008.66,VALID,0,VALID,104,VALID,0,VALID,23.129,VALID,58,VALID,0,
2014-08-03, 04:01:04,VALID,1008.65,VALID,0,VALID,104,VALID,0,VALID,23.0883,VALID,58,VALID,0,
2014-08-03, 04:02:04,VALID,1008.64,VALID,0,VALID,104,VALID,0,VALID,23.1095,VALID,58,VALID,0,
2014-08-03, 04:03:04,VALID,1008.62,VALID,0,VALID,104,VALID,0,VALID,23.129,VALID,58,VALID,0,
2014-08-03, 04:04:04,VALID,1008.61,VALID,0,VALID,104,VALID,0,VALID,23.09,VALID,58,VALID,0,
2014-08-03, 04:05:04,VALID,1008.62,VALID,0,VALID,104,VALID,0,VALID,23.09,VALID,58,VALID,0,